Volver al catálogo

STARLINK-32487

ActivoComunicacionesVLEO
NORAD 61963·PAYLOAD·🇺🇸 United States

Lanzado Nov 14, 2024 desde Cape Canaveral Space Force Station

Loading…

Próximos Pases (próximas 24 horas)

TLE

ActualizadoSource: CelesTrak SupGP

Época: Sep 14, 2026, 20:33 UTC

1 61963C 24210E   26257.85673611  .00018166  00000+0  65777-3 0  2576
2 61963  43.0022 191.5983 0001321 263.4751 309.1784 15.27579061    15

Sigue STARLINK-32487 en tiempo real con AllMySat

Download on the App Store